Wind_Speed
13 13 12 11 10 9 8 7 7 6 6 5 5 4 3 2 2 1 1 1 2 3 3 4 4 4 5 5 5 5 5 6 5 5 5 4 3 3 4 3 2 3 2
13 13 12 11 10 10 8 7 7 7 6 5 5 4 3 2 2 1 1 2 2 2 3 4 4 4 5 5 5 5 5 6 5 4 4 4 3 4 3 3 2 3 3
12 12 12 11 10 9 9 7 7 6 6 5 4 4 4 3 2 1 0 1 1 2 3 3 4 4 4 5 5 5 5 5 5 5 4 4 4 4 4 3 3 3 3
11 11 11 11 11 10 9 8 7 6 6 5 4 4 3 3 2 2 1 1 1 1 2 3 4 4 4 4 4 4 5 5 5 4 4 4 4 4 4 4 4 4 4
10 11 11 11 11 11 10 8 8 7 6 5 4 4 3 2 2 2 1 0 1 1 2 3 4 4 4 5 5 4 5 5 5 4 4 3 4 4 4 4 4 4 4
10 10 10 11 11 11 10 9 8 7 6 5 4 4 3 3 0 2 1 1 2 2 2 3 4 4 5 5 5 5 5 4 4 4 4 3 3 4 4 4 5 4 4
9 9 9 10 11 11 10 9 8 7 7 6 4 4 4 3 2 2 1 1 1 1 2 3 4 4 4 5 5 4 5 5 4 5 4 3 4 4 4 5 5 5 4
7 8 9 10 10 10 10 9 8 7 7 6 5 4 4 4 3 3 2 1 1 1 0 1 3 4 4 4 4 4 4 4 4 4 4 4 4 4 4 4 5 5 4
7 7 8 8 9 10 10 9 8 7 7 6 5 4 3 3 3 3 2 1 1 1 0 1 1 2 2 3 4 4 4 4 4 4 4 4 4 5 5 5 5 6 6
6 6 7 8 9 10 10 9 8 7 6 5 5 4 3 3 3 2 2 2 1 1 1 1 1 1 2 3 3 4 3 4 4 5 5 5 5 5 5 5 5 6 7
6 6 7 8 9 10 10 9 8 7 6 5 5 4 3 3 3 2 2 2 2 1 1 1 1 1 2 3 3 3 3 4 5 5 5 5 5 5 5 5 5 6 7
6 7 7 8 8 9 9 10 9 6 6 5 5 4 3 3 3 3 2 2 1 1 1 2 2 2 2 2 3 3 4 5 5 5 5 6 7 7 7 6 6 7 8
7 8 7 7 7 8 8 9 8 7 6 5 5 4 4 3 3 3 3 2 2 2 2 3 2 2 3 3 3 4 5 6 6 6 6 6 7 7 7 7 7 8 9
7 7 7 7 7 7 9 9 8 9 8 6 5 4 4 4 4 4 3 3 3 3 3 4 3 3 4 4 4 5 6 6 6 6 7 7 7 8 8 8 8 8 9
7 6 5 6 7 7 8 8 7 8 8 7 6 5 4 5 5 4 4 4 4 4 5 5 5 5 6 6 6 6 6 6 6 7 7 7 8 8 9 9 9 9 9
8 7 6 7 8 8 8 8 8 8 8 7 6 5 4 5 5 5 5 5 5 5 6 6 6 6 6 7 7 6 6 6 7 7 7 8 8 9 9 9 9 10 10
9 8 7 8 8 8 8 8 8 9 9 7 6 6 5 6 5 6 6 6 6 7 7 7 7 7 7 7 7 8 8 8 8 8 8 8 9 9 9 10 9 10 10
10 9 8 8 9 9 9 9 8 9 10 9 8 7 7 7 6 7 7 7 7 7 8 8 8 7 8 8 8 9 9 8 8 8 8 9 10 10 10 10 10 11 10
12 11 10 10 10 10 10 9 9 9 10 10 9 8 8 8 8 8 8 8 8 8 8 8 8 8 8 9 9 9 9 10 9 9 9 9 10 11 11 11 11 11 11
14 13 12 12 12 11 11 11 10 11 12 11 10 9 9 9 9 8 8 9 9 9 9 9 9 9 9 10 9 9 9 10 9 9 9 9 10 11 11 11 12 12 12
15 14 13 13 13 13 13 13 12 12 12 12 11 11 10 10 10 10 9 9 9 10 9 9 9 9 9 9 9 9 10 10 10 10 9 10 11 12 12 12 12 13 13
15 14 14 14 14 14 15 13 13 14 14 14 13 12 12 12 12 11 10 11 11 10 10 9 9 9 9 9 9 9 10 10 10 10 10 10 11 11 11 12 12 13 13
16 16 16 15 16 16 15 16 16 16 16 15 14 14 13 14 14 13 13 12 12 11 11 11 10 10 10 10 10 10 10 11 11 10 10 10 11 12 11 11 12 13 14
19 18 18 17 17 17 17 17 17 17 16 16 15 15 15 15 15 15 15 14 13 13 13 12 12 11 11 12 12 12 11 11 11 11 11 11 12 12 12 12 13 13 14
21 21 20 20 20 19 18 18 18 18 17 17 17 16 16 16 16 16 16 15 14 14 14 14 14 13 13 13 13 13 12 12 12 12 11 12 12 12 13 13 13 13 13
22 22 22 22 21 20 20 20 19 19 18 18 17 18 18 18 18 18 17 17 16 16 15 15 15 15 15 15 14 14 13 13 13 13 12 12 12 12 13 12 12 12 12
Wind_Direction
34 34 32 32 31 30 29 28 23 17 13 7 6 10 15 31 61 54 67 113 147 157 166 170 170 168 171 177 175 173 173 169 169 180 174 180 186 192 188 168 171 176 177
35 32 29 29 30 30 28 25 20 15 11 9 13 18 19 30 46 61 120 133 143 157 171 178 180 184 185 187 187 185 182 175 182 184 174 173 179 190 195 189 190 205 215
33 31 30 30 29 26 23 17 13 11 9 5 4 11 23 36 21 12 179 144 151 170 178 190 192 188 188 193 196 197 193 189 190 192 187 191 190 194 203 217 216 212 222
31 29 27 26 25 23 22 18 11 8 9 4 1 2 5 18 33 32 99 172 157 166 184 200 204 200 193 194 202 211 202 198 189 197 189 198 204 205 212 221 210 218 223
28 27 25 24 22 21 22 18 13 9 9 10 9 359 358 357 37 66 79 200 183 190 198 199 208 205 199 199 204 213 205 203 211 209 199 203 209 210 218 222 220 224 223
24 23 22 21 19 19 19 18 17 15 9 13 13 4 357 343 292 18 68 106 170 187 186 192 201 205 198 199 202 205 209 214 218 216 216 212 218 218 230 230 221 225 224
14 18 20 18 16 16 17 16 18 18 15 15 18 29 24 19 24 22 63 114 117 153 171 176 185 197 200 195 195 199 211 214 221 222 224 230 233 234 244 237 234 231 229
4 12 14 13 13 14 15 16 17 18 18 23 30 41 28 31 34 41 58 103 114 84 287 218 194 195 208 206 202 209 224 228 224 236 239 237 242 239 244 236 235 234 240
360 7 5 7 10 13 13 14 16 15 15 25 29 35 27 30 33 31 41 43 75 93 357 313 220 220 238 240 233 233 236 241 242 249 249 248 250 254 255 255 247 239 237
351 359 10 8 10 10 10 12 14 14 17 25 23 27 29 30 27 25 29 30 11 338 355 332 276 270 266 258 245 239 251 260 268 264 256 255 260 266 264 264 253 246 242
353 358 358 2 5 8 10 11 12 14 19 21 21 18 23 22 14 13 17 24 11 343 333 267 236 251 248 252 251 244 249 267 280 275 271 264 265 268 268 268 256 252 251
355 352 352 357 1 7 9 9 11 12 13 13 15 13 10 4 351 348 347 2 347 311 291 264 244 262 257 254 256 258 263 272 280 274 269 266 267 270 272 268 261 259 256
344 345 348 350 360 7 6 5 8 8 3 359 0 7 6 355 340 334 323 328 318 307 306 304 270 275 280 272 261 279 277 276 277 271 267 267 269 267 268 265 265 265 260
328 337 340 344 348 356 1 360 3 3 360 356 357 357 348 344 345 344 337 340 337 328 331 326 298 289 293 291 286 285 284 278 275 275 271 270 271 269 265 265 267 268 267
314 320 327 328 333 341 351 354 356 356 353 347 345 344 347 343 341 331 327 321 320 315 316 312 314 306 304 301 293 284 283 286 285 285 281 278 275 272 268 268 269 270 271
310 306 311 315 322 327 335 341 345 344 345 343 339 331 328 323 321 319 314 314 310 308 310 306 303 306 307 307 296 289 294 292 288 283 280 277 276 276 270 266 268 272 271
305 305 308 310 316 318 320 325 330 333 333 336 338 327 320 316 313 311 308 311 310 306 302 301 300 300 302 302 296 295 297 293 286 283 279 277 275 275 275 268 268 273 273
298 299 301 304 309 314 316 314 315 322 326 324 326 320 315 311 309 306 302 306 310 307 302 300 299 298 303 302 295 292 294 293 289 283 282 282 278 275 276 272 271 273 272
298 294 296 299 301 305 307 307 308 313 316 314 316 316 310 306 303 304 303 302 301 299 299 295 294 293 297 298 294 288 287 288 288 285 285 283 279 277 278 278 272 272 274
293 288 289 296 296 294 297 299 299 305 309 313 310 309 309 307 300 298 299 299 297 295 293 293 295 298 295 295 295 290 289 288 287 288 287 283 280 278 281 281 274 274 274
288 282 283 285 288 290 292 292 293 300 302 305 301 298 304 303 298 292 293 293 294 293 291 292 292 297 296 295 295 292 292 291 290 289 287 284 281 280 281 280 277 275 274
287 281 280 281 282 284 286 287 290 294 294 294 294 292 294 296 294 291 293 290 292 289 287 288 291 294 298 298 298 292 290 292 292 291 289 288 286 284 283 281 278 277 275
286 281 279 283 280 281 281 284 287 289 291 289 287 286 289 293 292 290 292 293 293 288 283 283 286 290 292 294 295 296 294 289 289 290 291 290 287 287 286 283 283 282 282
283 283 281 282 281 279 279 281 284 285 285 284 284 282 283 288 290 288 289 289 289 286 282 282 282 285 286 289 291 291 291 292 291 291 291 290 289 290 290 285 283 283 284
281 280 281 282 282 280 279 281 281 280 282 282 282 281 283 285 285 285 285 283 283 281 280 281 280 281 283 286 289 289 288 289 290 289 289 289 288 290 289 286 282 282 285
278 277 276 278 278 278 279 280 279 279 280 280 281 281 282 282 280 279 279 280 280 278 279 278 276 277 279 284 285 285 285 286 286 286 286 286 284 286 286 285 283 283 285
Height
5898 5897 5895 5894 5893 5892 5891 5890 5889 5888 5887 5887 5886 5885 5884 5883 5883 5882 5882 5882 5881 5882 5882 5882 5882 5882 5883 5883 5884 5884 5885 5885 5885 5885 5886 5886 5887 5887 5887 5887 5887 5887 5887
5899 5898 5897 5895 5894 5893 5892 5891 5890 5889 5888 5887 5886 5885 5884 5883 5883 5883 5882 5882 5881 5882 5882 5882 5882 5882 5883 5883 5883 5884 5884 5885 5885 5885 5886 5886 5886 5887 5887 5887 5887 5887 5887
5900 5899 5898 5896 5895 5894 5893 5891 5890 5889 5888 5887 5886 5885 5884 5884 5883 5883 5882 5882 5882 5882 5882 5882 5882 5882 5882 5883 5883 5883 5884 5884 5885 5885 5885 5885 5886 5886 5887 5887 5887 5887 5886
5901 5900 5899 5898 5896 5895 5893 5892 5890 5889 5888 5887 5886 5886 5885 5884 5883 5883 5882 5882 5882 5882 5882 5882 5882 5882 5882 5883 5883 5883 5883 5883 5884 5884 5884 5884 5885 5885 5886 5886 5886 5886 5886
5902 5901 5900 5898 5897 5895 5894 5892 5891 5890 5888 5887 5887 5886 5884 5883 5883 5883 5882 5882 5882 5882 5882 5882 5881 5881 5882 5882 5882 5882 5883 5883 5883 5884 5884 5884 5884 5884 5885 5885 5885 5886 5886
5903 5902 5901 5899 5898 5896 5894 5893 5891 5890 5889 5888 5887 5886 5884 5882 5882 5882 5882 5882 5882 5882 5881 5881 5881 5881 5882 5881 5882 5882 5882 5883 5883 5883 5883 5884 5884 5884 5884 5884 5885 5885 5885
5904 5903 5901 5900 5898 5896 5895 5893 5891 5890 5889 5888 5887 5885 5883 5881 5881 5882 5882 5882 5882 5882 5881 5881 5881 5881 5881 5881 5881 5881 5882 5882 5883 5883 5883 5883 5883 5883 5883 5884 5884 5884 5884
5904 5903 5902 5900 5899 5897 5895 5893 5892 5890 5889 5888 5887 5885 5884 5883 5882 5882 5882 5882 5882 5881 5881 5881 5881 5881 5881 5881 5881 5881 5881 5882 5882 5882 5883 5883 5883 5883 5883 5883 5883 5884 5884
5904 5903 5902 5901 5899 5897 5896 5894 5892 5891 5889 5888 5887 5885 5885 5884 5883 5883 5882 5882 5881 5881 5881 5881 5881 5881 5881 5881 5881 5881 5881 5881 5881 5882 5882 5882 5882 5882 5882 5882 5882 5882 5882
5903 5903 5901 5901 5900 5898 5896 5894 5893 5891 5890 5889 5888 5886 5885 5884 5884 5883 5882 5882 5882 5881 5881 5880 5881 5881 5881 5881 5880 5881 5881 5881 5881 5881 5881 5881 5881 5881 5881 5881 5881 5881 5881
5903 5902 5901 5901 5900 5898 5897 5895 5893 5892 5890 5889 5888 5887 5886 5885 5884 5883 5883 5882 5882 5881 5880 5880 5880 5880 5880 5880 5880 5880 5880 5880 5880 5880 5880 5879 5879 5879 5879 5879 5879 5879 5880
5903 5903 5902 5901 5900 5898 5897 5895 5893 5892 5891 5890 5889 5887 5886 5885 5884 5884 5883 5883 5882 5881 5880 5880 5880 5880 5880 5879 5879 5879 5879 5879 5879 5878 5878 5878 5878 5878 5878 5878 5878 5878 5878
5903 5902 5901 5901 5899 5898 5897 5895 5894 5892 5891 5890 5889 5888 5887 5886 5885 5884 5883 5883 5882 5881 5881 5880 5880 5879 5879 5879 5878 5878 5878 5878 5877 5877 5877 5877 5876 5876 5876 5876 5876 5876 5876
5903 5902 5901 5900 5899 5898 5897 5895 5894 5892 5891 5890 5888 5887 5886 5885 5884 5883 5883 5882 5882 5881 5880 5880 5879 5879 5878 5877 5877 5876 5876 5876 5875 5875 5875 5875 5875 5875 5874 5874 5874 5874 5874
5902 5901 5900 5899 5898 5897 5896 5895 5894 5892 5891 5889 5888 5887 5886 5885 5884 5883 5883 5882 5881 5880 5880 5879 5878 5878 5877 5876 5875 5875 5874 5874 5874 5873 5873 5873 5873 5872 5872 5872 5872 5872 5871
5901 5900 5898 5898 5897 5896 5895 5894 5893 5891 5890 5889 5887 5886 5885 5885 5884 5883 5882 5881 5880 5880 5879 5878 5877 5876 5876 5875 5874 5873 5873 5872 5871 5871 5871 5871 5870 5870 5870 5869 5869 5869 5869
5899 5898 5897 5896 5895 5894 5894 5892 5891 5890 5889 5888 5887 5885 5884 5883 5882 5882 5881 5880 5879 5878 5877 5877 5876 5875 5874 5873 5872 5871 5871 5870 5870 5869 5869 5868 5868 5867 5867 5866 5866 5866 5866
5896 5895 5895 5894 5893 5892 5892 5891 5889 5888 5887 5886 5885 5884 5883 5882 5881 5880 5879 5878 5877 5876 5875 5875 5874 5873 5872 5871 5870 5870 5869 5868 5868 5867 5866 5866 5865 5865 5865 5864 5863 5863 5863
5894 5893 5893 5892 5891 5890 5889 5888 5887 5886 5885 5884 5883 5882 5881 5880 5879 5878 5877 5876 5875 5875 5874 5873 5872 5872 5871 5870 5869 5868 5867 5866 5865 5865 5864 5863 5863 5862 5862 5861 5860 5860 5860
5892 5891 5890 5889 5888 5888 5886 5886 5885 5884 5883 5881 5881 5880 5879 5878 5877 5876 5875 5874 5874 5873 5872 5871 5871 5870 5869 5868 5867 5866 5865 5864 5863 5863 5862 5861 5860 5859 5858 5858 5857 5857 5856
5888 5887 5887 5886 5885 5884 5883 5882 5881 5881 5880 5879 5878 5878 5877 5876 5875 5874 5873 5872 5871 5871 5870 5869 5869 5868 5867 5866 5865 5864 5862 5861 5861 5860 5859 5858 5857 5856 5856 5855 5854 5853 5853
5884 5884 5883 5882 5881 5881 5879 5878 5878 5878 5877 5876 5876 5875 5874 5873 5872 5870 5870 5869 5869 5868 5867 5867 5866 5865 5864 5863 5863 5862 5860 5860 5858 5857 5857 5856 5854 5853 5853 5851 5851 5850 5849
5880 5880 5879 5878 5877 5876 5875 5874 5874 5874 5873 5872 5872 5871 5871 5870 5867 5867 5867 5866 5866 5865 5865 5864 5863 5863 5862 5861 5860 5860 5858 5857 5856 5855 5854 5853 5852 5851 5849 5848 5847 5846 5845
5875 5875 5875 5874 5873 5872 5872 5871 5870 5869 5869 5868 5868 5867 5867 5866 5865 5864 5864 5863 5863 5862 5862 5861 5860 5860 5859 5858 5857 5857 5856 5854 5853 5852 5851 5850 5848 5847 5846 5845 5844 5842 5841
5870 5870 5869 5868 5868 5867 5866 5866 5865 5865 5864 5864 5863 5863 5862 5862 5861 5860 5860 5859 5859 5859 5858 5857 5857 5856 5856 5855 5854 5853 5852 5851 5850 5849 5848 5846 5845 5844 5842 5841 5840 5839 5838
5864 5863 5863 5863 5862 5862 5861 5861 5860 5860 5859 5859 5859 5858 5858 5857 5856 5856 5855 5855 5855 5854 5854 5853 5853 5852 5852 5851 5850 5849 5848 5847 5846 5846 5844 5843 5842 5840 5839 5838 5837 5835 5834